THY6484 LTFM-UAAA

Flight info

Callsign THY6484
Flight time 5h 7m
Altitude 35000
Route EKAWE1E/36 EKAWE UT643 GAKSU UT310 SIN UN644 KARDE UL851 TBN UR317 REBLO DCT MATAL T916 LEYLA N161 GASBI/K0846F350 N161 DIVNO M610 ORTEG L855 RISAS Z370 EKLAT EKLAT1Z
Aircraft A320/M-SDFGHIJ3RWY/LB1

Departure

Time 2026-05-04 11:37
Airport İstanbul Airport (LTFM)

Arrival

Time 2026-05-04 16:45
Airport Almaty International Airport (UAAA)
Time Latitude Longitude Altitude Speed Heading
2026-05-04 10:54 41.26680 28.74352 334 ft 0 kts 272°
2026-05-04 11:28 41.26680 28.74372 331 ft 4 kts 268°
2026-05-04 11:28 41.26681 28.74408 333 ft 4 kts 268°
2026-05-04 11:28 41.26681 28.74437 331 ft 4 kts 282°
2026-05-04 11:28 41.26670 28.74465 331 ft 4 kts 331°
2026-05-04 11:29 41.26652 28.74472 334 ft 0 kts 359°
2026-05-04 11:33 41.26972 28.74552 333 ft 14 kts 88°
2026-05-04 11:33 41.26974 28.74700 334 ft 17 kts 89°
2026-05-04 11:33 41.26977 28.74864 334 ft 18 kts 89°
2026-05-04 11:34 41.26980 28.75040 334 ft 20 kts 89°
2026-05-04 11:34 41.26983 28.75222 332 ft 19 kts 89°
2026-05-04 11:34 41.26961 28.75366 333 ft 15 kts 148°
2026-05-04 11:34 41.26858 28.75377 334 ft 16 kts 179°
2026-05-04 11:35 41.26744 28.75379 332 ft 17 kts 179°
2026-05-04 11:35 41.26635 28.75382 331 ft 16 kts 178°
2026-05-04 11:35 41.26522 28.75385 334 ft 17 kts 179°
2026-05-04 11:35 41.26434 28.75408 334 ft 13 kts 135°
2026-05-04 11:36 41.26424 28.75511 334 ft 11 kts 91°
2026-05-04 11:36 41.26424 28.75616 333 ft 11 kts 88°
2026-05-04 11:36 41.26474 28.75663 334 ft 0 kts 358°
2026-05-04 11:36 41.26483 28.75662 334 ft 6 kts 358°
2026-05-04 11:37 41.26753 28.75656 332 ft 71 kts 359°
2026-05-04 11:37 41.27436 28.75643 332 ft 122 kts 359°
2026-05-04 11:37 41.28428 28.75614 407 ft 156 kts 356°
2026-05-04 11:37 41.29540 28.75596 1002 ft 164 kts
2026-05-04 11:38 41.30606 28.76106 1699 ft 169 kts 37°
2026-05-04 11:38 41.31440 28.77172 2395 ft 168 kts 40°
2026-05-04 11:38 41.32367 28.78085 3011 ft 162 kts 27°
2026-05-04 11:38 41.33326 28.78820 3541 ft 162 kts 25°
2026-05-04 11:39 41.34365 28.79589 3758 ft 182 kts 25°
2026-05-04 11:39 41.35543 28.80460 3904 ft 206 kts 26°
2026-05-04 11:40 41.45097 28.81575 7742 ft 249 kts 355°
2026-05-04 11:41 41.46831 28.81412 7954 ft 250 kts 355°
2026-05-04 11:41 41.48562 28.81237 8004 ft 249 kts 355°
2026-05-04 11:41 41.50287 28.81050 8006 ft 249 kts 355°
2026-05-04 11:41 41.52016 28.81257 8398 ft 254 kts 16°
2026-05-04 11:42 41.53535 28.82412 9164 ft 261 kts 39°
2026-05-04 11:42 41.54537 28.84484 9883 ft 277 kts 67°
2026-05-04 11:42 41.54851 28.87102 10260 ft 298 kts 78°
2026-05-04 11:42 41.55063 28.89953 10395 ft 319 kts 79°
2026-05-04 11:43 41.55267 28.93000 10524 ft 339 kts 79°
2026-05-04 11:43 41.55473 28.96224 10657 ft 357 kts 79°
2026-05-04 11:43 41.55739 28.99565 11050 ft 365 kts 76°
2026-05-04 11:43 41.56112 29.02911 11626 ft 365 kts 75°
2026-05-04 11:44 41.56545 29.06250 12217 ft 365 kts 74°
2026-05-04 11:44 41.56999 29.09589 12827 ft 366 kts 74°
2026-05-04 11:44 41.57456 29.12934 13423 ft 367 kts 74°
2026-05-04 11:44 41.57906 29.16297 14012 ft 369 kts 75°
2026-05-04 11:45 41.58346 29.19680 14497 ft 371 kts 75°
2026-05-04 11:45 41.58778 29.23087 14967 ft 373 kts 75°
2026-05-04 11:45 41.59206 29.26521 15414 ft 376 kts 76°
2026-05-04 11:45 41.59633 29.29977 15867 ft 379 kts 76°
2026-05-04 11:46 41.60062 29.33461 16324 ft 381 kts 76°
2026-05-04 11:46 41.60497 29.36961 16781 ft 384 kts 76°
2026-05-04 11:46 41.60937 29.40491 17215 ft 386 kts 76°
2026-05-04 11:46 41.61377 29.44043 17703 ft 389 kts 76°
2026-05-04 11:47 41.61816 29.47628 18120 ft 393 kts 77°
2026-05-04 11:47 41.62257 29.51236 18554 ft 395 kts 77°
2026-05-04 11:47 41.62703 29.54862 18974 ft 397 kts 77°
2026-05-04 11:47 41.63153 29.58508 19387 ft 398 kts 77°
2026-05-04 11:48 41.63602 29.62168 19804 ft 400 kts 77°
2026-05-04 11:48 41.64049 29.65850 20218 ft 402 kts 77°
2026-05-04 11:48 41.64495 29.69545 20618 ft 404 kts 77°
2026-05-04 11:48 41.64941 29.73258 20995 ft 405 kts 77°
2026-05-04 11:49 41.65386 29.76989 21361 ft 407 kts 77°
2026-05-04 11:49 41.65831 29.80737 21713 ft 409 kts 77°
2026-05-04 11:49 41.66281 29.84499 22058 ft 411 kts 77°
2026-05-04 11:49 41.66734 29.88277 22389 ft 412 kts 77°
2026-05-04 11:50 41.67188 29.92073 22714 ft 415 kts 77°
2026-05-04 11:50 41.67644 29.95896 23002 ft 418 kts 78°
2026-05-04 11:50 41.68097 29.99737 23347 ft 419 kts 78°
2026-05-04 11:50 41.68551 30.03586 23705 ft 419 kts 78°
2026-05-04 11:51 41.69003 30.07422 24127 ft 416 kts 78°
2026-05-04 11:51 41.69451 30.11238 24552 ft 414 kts 78°
2026-05-04 11:51 41.69893 30.15037 24979 ft 412 kts 78°
2026-05-04 11:51 41.70332 30.18814 25419 ft 410 kts 78°
2026-05-04 11:52 41.70769 30.22568 25859 ft 408 kts 78°
2026-05-04 11:52 41.71208 30.26312 26304 ft 406 kts 77°
2026-05-04 11:52 41.71643 30.30034 26758 ft 404 kts 77°
2026-05-04 11:52 41.72074 30.33732 27205 ft 402 kts 77°
2026-05-04 11:53 41.72500 30.37414 27707 ft 399 kts 77°
2026-05-04 11:53 41.72922 30.41082 28170 ft 397 kts 77°
2026-05-04 11:53 41.73340 30.44725 28637 ft 395 kts 77°
2026-05-04 11:53 41.73753 30.48348 29137 ft 392 kts 77°
2026-05-04 11:55 41.77377 30.73031 31770 ft 384 kts 72°
2026-05-04 11:55 41.78036 30.76489 32099 ft 384 kts 72°
2026-05-04 11:56 41.78695 30.79955 32425 ft 384 kts 72°
2026-05-04 11:56 41.79350 30.83416 32768 ft 384 kts 73°
2026-05-04 11:56 41.80008 30.86898 32981 ft 387 kts 73°
2026-05-04 11:56 41.80668 30.90396 33273 ft 387 kts 73°
2026-05-04 11:57 41.81328 30.93894 33590 ft 387 kts 73°
2026-05-04 11:57 41.81986 30.97395 33888 ft 388 kts 73°
2026-05-04 11:57 41.82645 31.00904 34134 ft 389 kts 73°
2026-05-04 11:57 41.83303 31.04424 34334 ft 390 kts 73°
2026-05-04 11:58 41.83963 31.07954 34520 ft 391 kts 73°
2026-05-04 11:58 41.84652 31.11483 34705 ft 392 kts 72°
2026-05-04 11:58 41.85392 31.15006 34863 ft 393 kts 72°
2026-05-04 11:59 41.86961 31.22134 34902 ft 404 kts 71°
2026-05-04 11:59 41.88559 31.29478 34899 ft 414 kts 72°
2026-05-04 12:00 41.90139 31.36930 34914 ft 416 kts 72°
2026-05-04 12:00 41.91717 31.44443 34893 ft 419 kts 72°
2026-05-04 12:01 41.93293 31.51984 34891 ft 420 kts 72°
2026-05-04 12:02 41.98817 31.78430 34904 ft 420 kts 72°
2026-05-04 12:03 42.00382 31.86001 34884 ft 420 kts 72°
2026-05-04 12:03 42.01950 31.93576 34902 ft 420 kts 73°
2026-05-04 12:04 42.03254 31.99868 34886 ft 421 kts 73°
2026-05-04 12:04 42.04813 32.07459 34884 ft 421 kts 73°
2026-05-04 12:05 42.06625 32.16291 34880 ft 421 kts 73°
2026-05-04 12:05 42.08168 32.23906 34881 ft 422 kts 73°
2026-05-04 12:06 42.09479 32.30282 34883 ft 422 kts 72°
2026-05-04 12:06 42.11198 32.37826 34884 ft 421 kts 71°
2026-05-04 12:07 42.12968 32.45289 34874 ft 421 kts 71°
2026-05-04 12:07 42.14729 32.52871 34880 ft 421 kts 71°
2026-05-04 12:08 42.16353 32.60387 34879 ft 421 kts 78°
2026-05-04 12:08 42.16777 32.68281 34877 ft 423 kts 86°
2026-05-04 12:09 42.16962 32.76212 34876 ft 423 kts 86°
2026-05-04 12:09 42.17149 32.84148 34870 ft 424 kts 86°
2026-05-04 12:10 42.17329 32.92086 34882 ft 424 kts 86°
2026-05-04 12:10 42.17503 33.00020 34874 ft 423 kts 86°
2026-05-04 12:11 42.17662 33.07956 34869 ft 423 kts 86°
2026-05-04 12:11 42.17813 33.15886 34869 ft 423 kts 86°
2026-05-04 12:12 42.17964 33.23814 34868 ft 423 kts 86°
2026-05-04 12:12 42.18110 33.31744 34865 ft 423 kts 86°
2026-05-04 12:14 42.18655 33.63490 34859 ft 423 kts 88°
2026-05-04 12:15 42.18770 33.71420 34859 ft 423 kts 87°
2026-05-04 12:15 42.18886 33.79345 34876 ft 423 kts 89°
2026-05-04 12:16 42.18212 33.87231 34862 ft 425 kts 98°
2026-05-04 12:16 42.17229 33.95098 34854 ft 426 kts 98°
2026-05-04 12:17 42.16245 34.02976 34854 ft 426 kts 98°
2026-05-04 12:17 42.15255 34.10860 34854 ft 427 kts 98°
2026-05-04 12:18 42.14262 34.18746 34865 ft 427 kts 98°
2026-05-04 12:18 42.13267 34.26647 34863 ft 428 kts 98°
2026-05-04 12:19 42.12257 34.34559 34854 ft 428 kts 98°
2026-05-04 12:19 42.11241 34.42459 34858 ft 428 kts 98°
2026-05-04 12:20 42.10195 34.50345 34887 ft 427 kts 99°
2026-05-04 12:20 42.09101 34.58208 34876 ft 427 kts 100°
2026-05-04 12:21 42.07993 34.66053 34877 ft 427 kts 100°
2026-05-04 12:21 42.06890 34.73896 34873 ft 426 kts 100°
2026-05-04 12:22 42.05790 34.81734 34872 ft 426 kts 99°
2026-05-04 12:22 42.04696 34.89572 34869 ft 426 kts 99°
2026-05-04 12:23 42.03650 34.97431 34865 ft 427 kts 99°
2026-05-04 12:23 42.02608 35.05304 34863 ft 428 kts 99°
2026-05-04 12:24 42.02014 35.13250 34863 ft 427 kts 94°
2026-05-04 12:24 42.01599 35.21225 34870 ft 428 kts 94°
2026-05-04 12:25 42.01164 35.29212 34850 ft 429 kts 94°
2026-05-04 12:25 42.00729 35.37212 34857 ft 430 kts 94°
2026-05-04 12:26 42.00290 35.45227 34859 ft 430 kts 94°
2026-05-04 12:26 41.99844 35.53248 34863 ft 430 kts 94°
2026-05-04 12:27 41.99396 35.61220 34869 ft 431 kts 95°
2026-05-04 12:27 41.98943 35.69252 34861 ft 432 kts 95°
2026-05-04 12:28 41.98482 35.77302 34862 ft 432 kts 95°
2026-05-04 12:28 41.98008 35.85358 34857 ft 433 kts 95°
2026-05-04 12:29 41.97526 35.93424 34862 ft 433 kts 95°
2026-05-04 12:29 41.97043 36.01485 34860 ft 433 kts 95°
2026-05-04 12:30 41.96558 36.09554 34856 ft 433 kts 95°
2026-05-04 12:30 41.96068 36.17629 34855 ft 434 kts 95°
2026-05-04 12:31 41.95568 36.25710 34854 ft 434 kts 95°
2026-05-04 12:31 41.95059 36.33790 34853 ft 434 kts 95°
2026-05-04 12:32 41.94288 36.45921 34860 ft 435 kts 96°
2026-05-04 12:33 41.93770 36.54010 34856 ft 435 kts 95°
2026-05-04 12:33 41.93252 36.62100 34857 ft 435 kts 96°
2026-05-04 12:34 41.92721 36.70181 34855 ft 434 kts 96°
2026-05-04 12:34 41.92178 36.78257 34848 ft 434 kts 96°
2026-05-04 12:35 41.91639 36.86328 34845 ft 434 kts 96°
2026-05-04 12:35 41.91093 36.94408 34850 ft 435 kts 96°
2026-05-04 12:36 41.90490 37.02485 34851 ft 434 kts 101°
2026-05-04 12:36 41.88638 37.10159 34854 ft 433 kts 113°
2026-05-04 12:37 41.86286 37.17604 34849 ft 434 kts 114°
2026-05-04 12:37 41.83933 37.25067 34847 ft 435 kts 113°
2026-05-04 12:38 41.81571 37.32539 34852 ft 436 kts 114°
2026-05-04 12:38 41.79201 37.40015 34853 ft 436 kts 114°
2026-05-04 12:39 41.76827 37.47501 34843 ft 437 kts 114°
2026-05-04 12:39 41.74444 37.54996 34840 ft 438 kts 114°
2026-05-04 12:40 41.72043 37.62495 34844 ft 439 kts 114°
2026-05-04 12:40 41.69636 37.69997 34847 ft 439 kts 114°
2026-05-04 12:41 41.67229 37.77510 34842 ft 440 kts 114°
2026-05-04 12:41 41.64816 37.85027 34847 ft 440 kts 114°
2026-05-04 12:42 41.62391 37.92544 34853 ft 441 kts 114°
2026-05-04 12:42 41.59956 38.00058 34848 ft 441 kts 115°
2026-05-04 12:43 41.57520 38.07581 34840 ft 442 kts 115°
2026-05-04 12:43 41.55065 38.15107 34849 ft 442 kts 115°
2026-05-04 12:44 41.52596 38.22637 34853 ft 443 kts 115°
2026-05-04 12:44 41.50132 38.30173 34850 ft 443 kts 115°
2026-05-04 12:45 41.47666 38.37716 34848 ft 444 kts 115°
2026-05-04 12:45 41.45188 38.45272 34828 ft 445 kts 115°
2026-05-04 12:46 41.42699 38.52811 34849 ft 444 kts 116°
2026-05-04 12:46 41.40208 38.60333 34842 ft 444 kts 116°
2026-05-04 12:47 41.37711 38.67853 34856 ft 444 kts 116°
2026-05-04 12:47 41.35207 38.75369 34844 ft 444 kts 116°
2026-05-04 12:48 41.32722 38.82840 34843 ft 445 kts 116°
2026-05-04 12:48 41.30657 38.89161 34828 ft 445 kts 116°
2026-05-04 12:49 41.28198 38.96721 34825 ft 446 kts 116°
2026-05-04 12:49 41.25316 39.05495 34842 ft 446 kts 116°
2026-05-04 12:50 41.23227 39.11817 34853 ft 446 kts 116°
2026-05-04 12:50 41.20730 39.19368 34834 ft 446 kts 117°
2026-05-04 12:51 41.18141 39.26863 34848 ft 447 kts 118°
2026-05-04 12:51 41.15496 39.34331 34851 ft 447 kts 118°
2026-05-04 12:52 41.12856 39.41801 34863 ft 447 kts 118°
2026-05-04 12:52 41.10223 39.49279 34878 ft 447 kts 118°
2026-05-04 12:53 41.07594 39.56760 34884 ft 448 kts 118°
2026-05-04 12:53 41.04961 39.64235 34881 ft 448 kts 118°
2026-05-04 12:54 41.02320 39.71699 34867 ft 448 kts 119°
2026-05-04 12:54 40.99991 39.79308 34873 ft 454 kts 108°
2026-05-04 12:55 40.99337 39.87677 34869 ft 461 kts 95°
2026-05-04 12:55 40.99149 39.96166 34869 ft 461 kts 96°
2026-05-04 12:56 40.98942 40.04654 34846 ft 462 kts 96°
2026-05-04 12:56 40.98724 40.13162 34835 ft 463 kts 96°
2026-05-04 12:57 40.98491 40.21674 34856 ft 463 kts 96°
2026-05-04 12:57 40.98263 40.30181 34873 ft 463 kts 96°
2026-05-04 12:58 40.98028 40.38689 34887 ft 463 kts 96°
2026-05-04 12:58 40.97789 40.47192 34867 ft 463 kts 97°
2026-05-04 12:59 40.97534 40.55702 34876 ft 463 kts 97°
2026-05-04 12:59 40.97274 40.64222 34891 ft 464 kts 97°
2026-05-04 13:00 40.97016 40.72753 34895 ft 464 kts 97°
2026-05-04 13:00 40.96751 40.81283 34910 ft 464 kts 97°
2026-05-04 13:01 40.96473 40.89812 34890 ft 464 kts 98°
2026-05-04 13:01 40.96192 40.98358 34889 ft 466 kts 98°
2026-05-04 13:02 40.95904 41.06920 34898 ft 466 kts 98°
2026-05-04 13:02 40.95606 41.15485 34894 ft 466 kts 98°
2026-05-04 13:03 40.95306 41.24049 34864 ft 466 kts 98°
2026-05-04 13:03 40.95000 41.32606 34858 ft 465 kts 99°
2026-05-04 13:04 40.94688 41.41141 34866 ft 466 kts 99°
2026-05-04 13:04 40.94365 41.49702 34864 ft 466 kts 99°
2026-05-04 13:05 40.94037 41.58205 34869 ft 466 kts 99°
2026-05-04 13:05 40.93705 41.66761 34855 ft 466 kts 99°
2026-05-04 13:06 40.93373 41.75333 34830 ft 466 kts 99°
2026-05-04 13:06 40.93033 41.83891 34821 ft 466 kts 99°
2026-05-04 13:07 40.92677 41.92453 34835 ft 466 kts 99°
2026-05-04 13:07 40.92316 42.01012 34842 ft 466 kts 99°
2026-05-04 13:08 40.91951 42.09580 34826 ft 466 kts 99°
2026-05-04 13:08 40.91570 42.18142 34831 ft 467 kts 100°
2026-05-04 13:09 40.91184 42.26725 34844 ft 468 kts 100°
2026-05-04 13:09 40.90801 42.35319 34841 ft 468 kts 99°
2026-05-04 13:10 40.90412 42.43908 34872 ft 468 kts 99°
2026-05-04 13:10 40.90016 42.52483 34843 ft 467 kts 100°
2026-05-04 13:11 40.89612 42.61059 34863 ft 468 kts 99°
2026-05-04 13:11 40.89195 42.69652 34872 ft 469 kts 99°
2026-05-04 13:12 40.88772 42.78254 34880 ft 469 kts 99°
2026-05-04 13:12 40.88350 42.86865 34868 ft 469 kts 99°
2026-05-04 13:13 40.87924 42.95413 34849 ft 469 kts 100°
2026-05-04 13:13 40.87488 43.04032 34852 ft 471 kts 100°
2026-05-04 13:14 40.87037 43.12663 34869 ft 471 kts 100°
2026-05-04 13:14 40.86582 43.21304 34872 ft 472 kts 100°
2026-05-04 13:15 40.86123 43.29946 34887 ft 472 kts 100°
2026-05-04 13:15 40.85653 43.38588 34883 ft 472 kts 100°
2026-05-04 13:16 40.85186 43.47237 34870 ft 472 kts 100°
2026-05-04 13:16 40.84718 43.55872 34881 ft 471 kts 100°
2026-05-04 13:17 40.84231 43.64500 34891 ft 471 kts 100°
2026-05-04 13:17 40.83771 43.73127 34888 ft 472 kts 99°
2026-05-04 13:18 40.83502 43.81795 34862 ft 473 kts 98°
2026-05-04 13:18 40.83279 43.90489 34870 ft 474 kts 98°
2026-05-04 13:19 40.83011 43.99195 34856 ft 475 kts 98°
2026-05-04 13:19 40.82707 44.07924 34864 ft 477 kts 99°
2026-05-04 13:20 40.82384 44.16680 34860 ft 478 kts 98°
2026-05-04 13:20 40.82059 44.25462 34847 ft 480 kts 99°
2026-05-04 13:21 40.81745 44.34280 34852 ft 482 kts 98°
2026-05-04 13:21 40.81424 44.43120 34856 ft 482 kts 99°
2026-05-04 13:22 40.81080 44.51977 34838 ft 483 kts 98°
2026-05-04 13:22 40.80726 44.60849 34823 ft 485 kts 99°
2026-05-04 13:23 40.80369 44.69735 34832 ft 485 kts 99°
2026-05-04 13:23 40.80021 44.78589 34832 ft 487 kts 99°
2026-05-04 13:24 40.79656 44.87517 34839 ft 487 kts 99°
2026-05-04 13:24 40.79270 44.96451 34833 ft 488 kts 99°
2026-05-04 13:25 40.78693 45.09872 34823 ft 488 kts 99°
2026-05-04 13:25 40.78301 45.18824 34833 ft 489 kts 98°
2026-05-04 13:26 40.77900 45.27779 34850 ft 489 kts 99°
2026-05-04 13:26 40.77495 45.36733 34846 ft 489 kts 99°
2026-05-04 13:27 40.77079 45.45690 34853 ft 489 kts 99°
2026-05-04 13:27 40.77317 45.54701 34821 ft 497 kts 86°
2026-05-04 13:28 40.78269 45.63733 34831 ft 497 kts 86°
2026-05-04 13:28 40.79209 45.72780 34838 ft 498 kts 86°
2026-05-04 13:29 40.80133 45.81821 34853 ft 497 kts 86°
2026-05-04 13:29 40.81047 45.90866 34853 ft 497 kts 86°
2026-05-04 13:30 40.81962 45.99923 34856 ft 497 kts 86°
2026-05-04 13:30 40.82871 46.08969 34838 ft 497 kts 86°
2026-05-04 13:31 40.83765 46.18030 34843 ft 498 kts 86°
2026-05-04 13:31 40.84652 46.27091 34841 ft 498 kts 86°
2026-05-04 13:32 40.85540 46.36151 34846 ft 497 kts 86°
2026-05-04 13:32 40.86425 46.45216 34860 ft 497 kts 86°
2026-05-04 13:33 40.87295 46.54277 34866 ft 497 kts 86°
2026-05-04 13:33 40.88148 46.63343 34861 ft 497 kts 86°
2026-05-04 13:34 40.88855 46.70871 34857 ft 497 kts 86°
2026-05-04 13:34 40.89856 46.81390 34871 ft 497 kts 84°
2026-05-04 13:35 40.92265 46.94779 34880 ft 499 kts 79°
2026-05-04 13:36 40.93649 47.02250 34878 ft 499 kts 79°
2026-05-04 13:36 40.95293 47.11178 34876 ft 500 kts 79°
2026-05-04 13:37 40.96933 47.20119 34879 ft 500 kts 79°
2026-05-04 13:37 40.98573 47.29072 34877 ft 500 kts 79°
2026-05-04 13:38 41.00207 47.38029 34868 ft 501 kts 79°
2026-05-04 13:38 41.01834 47.47016 34850 ft 502 kts 79°
2026-05-04 13:39 41.03450 47.56023 34855 ft 503 kts 79°
2026-05-04 13:39 41.05064 47.65044 34861 ft 503 kts 79°
2026-05-04 13:40 41.06677 47.74069 34855 ft 503 kts 79°
2026-05-04 13:40 41.07745 47.80044 34858 ft 503 kts 79°
2026-05-04 13:41 41.10086 47.93093 34854 ft 503 kts 76°
2026-05-04 13:41 41.12945 48.01579 34834 ft 507 kts 58°
2026-05-04 13:42 41.19144 48.12910 34871 ft 505 kts 54°
2026-05-04 13:42 41.23282 48.20437 34870 ft 504 kts 54°
2026-05-04 13:43 41.27411 48.27965 34871 ft 504 kts 54°
2026-05-04 13:43 41.31537 48.35511 34874 ft 504 kts 54°
2026-05-04 13:44 41.35661 48.43067 34883 ft 505 kts 54°
2026-05-04 13:44 41.39785 48.50637 34889 ft 505 kts 54°
2026-05-04 13:45 41.43918 48.58225 34889 ft 506 kts 53°
2026-05-04 13:45 41.48120 48.65765 34901 ft 507 kts 53°
2026-05-04 13:46 41.52355 48.73285 34899 ft 508 kts 53°
2026-05-04 13:46 41.56449 48.80972 34894 ft 508 kts 56°
2026-05-04 13:47 41.60334 48.88873 34894 ft 509 kts 57°
2026-05-04 13:47 41.64210 48.96797 34895 ft 509 kts 56°
2026-05-04 13:48 41.67476 49.03332 34898 ft 510 kts 56°
2026-05-04 13:48 41.72080 49.12478 34901 ft 510 kts 56°
2026-05-04 13:49 41.76038 49.20357 34905 ft 510 kts 56°
2026-05-04 13:49 41.79970 49.28268 34900 ft 510 kts 56°
2026-05-04 13:50 41.83307 49.34867 34900 ft 510 kts 54°
2026-05-04 13:50 41.87509 49.42535 34891 ft 510 kts 52°
2026-05-04 13:51 41.91782 49.50141 34900 ft 510 kts 53°
2026-05-04 13:51 41.95993 49.57809 34897 ft 510 kts 53°
2026-05-04 13:52 42.02234 49.69376 34908 ft 509 kts 54°
2026-05-04 13:53 42.06378 49.77085 34910 ft 508 kts 53°
2026-05-04 13:53 42.10530 49.84781 34904 ft 508 kts 53°
2026-05-04 13:54 42.16727 49.96331 34903 ft 506 kts 53°
2026-05-04 13:55 42.22914 50.07873 34906 ft 506 kts 53°
2026-05-04 13:55 42.29073 50.19427 34902 ft 505 kts 53°
2026-05-04 13:56 42.33165 50.27136 34903 ft 504 kts 53°
2026-05-04 13:57 42.39297 50.38697 34899 ft 504 kts 53°
2026-05-04 13:58 42.47543 50.54029 34902 ft 503 kts 51°
2026-05-04 13:58 42.54060 50.65174 34900 ft 503 kts 51°
2026-05-04 13:59 42.58363 50.72644 34902 ft 502 kts 51°
2026-05-04 14:00 42.64730 50.83938 34906 ft 502 kts 52°
2026-05-04 14:00 42.71089 50.95203 34910 ft 500 kts 52°
2026-05-04 14:01 42.75329 51.02703 34909 ft 500 kts 52°
2026-05-04 14:02 42.81664 51.13957 34904 ft 499 kts 52°
2026-05-04 14:02 42.85837 51.21416 34903 ft 498 kts 52°
2026-05-04 14:03 42.90063 51.28966 34918 ft 497 kts 52°
2026-05-04 14:03 42.94219 51.36419 34905 ft 496 kts 52°
2026-05-04 14:04 43.00472 51.47685 34901 ft 496 kts 52°
2026-05-04 14:04 43.04633 51.55194 34896 ft 495 kts 53°
2026-05-04 14:05 43.10858 51.66446 34898 ft 494 kts 53°
2026-05-04 14:06 43.14987 51.73945 34894 ft 493 kts 53°
2026-05-04 14:06 43.19105 51.81451 34885 ft 492 kts 53°
2026-05-04 14:07 43.23210 51.88958 34886 ft 492 kts 53°
2026-05-04 14:07 43.27310 51.96457 34885 ft 491 kts 53°
2026-05-04 14:08 43.31401 52.03967 34879 ft 491 kts 53°
2026-05-04 14:08 43.35484 52.11467 34878 ft 490 kts 53°
2026-05-04 14:09 43.41588 52.22737 34875 ft 490 kts 53°
2026-05-04 14:10 43.47680 52.34014 34861 ft 489 kts 54°
2026-05-04 14:10 43.51737 52.41541 34867 ft 489 kts 54°
2026-05-04 14:11 43.55782 52.49081 34866 ft 489 kts 54°
2026-05-04 14:11 43.61842 52.60418 34858 ft 489 kts 54°
2026-05-04 14:12 43.65875 52.67981 34857 ft 489 kts 54°
2026-05-04 14:13 43.71899 52.79333 34863 ft 488 kts 54°
2026-05-04 14:13 43.75896 52.86909 34862 ft 487 kts 54°
2026-05-04 14:14 43.79878 52.94479 34857 ft 486 kts 54°
2026-05-04 14:14 43.85853 53.05822 34853 ft 485 kts 54°
2026-05-04 14:15 43.93745 53.20957 34853 ft 483 kts 55°
2026-05-04 14:16 43.99605 53.32257 34850 ft 482 kts 55°
2026-05-04 14:17 44.05479 53.43576 34850 ft 481 kts 55°
2026-05-04 14:18 44.11316 53.54908 34841 ft 480 kts 55°
2026-05-04 14:19 44.19083 53.70006 34849 ft 479 kts 55°
2026-05-04 14:19 44.22950 53.77563 34847 ft 479 kts 55°
2026-05-04 14:20 44.26803 53.85137 34842 ft 479 kts 56°
2026-05-04 14:20 44.30657 53.92711 34842 ft 479 kts 55°
2026-05-04 14:21 44.36422 54.04095 34840 ft 478 kts 56°
2026-05-04 14:21 44.40252 54.11700 34839 ft 478 kts 56°
2026-05-04 14:22 44.44084 54.19300 34842 ft 478 kts 56°
2026-05-04 14:22 44.47911 54.26907 34850 ft 478 kts 56°
2026-05-04 14:23 44.53634 54.38321 34853 ft 477 kts 56°
2026-05-04 14:24 44.57436 54.45932 34848 ft 476 kts 56°
2026-05-04 14:24 44.61237 54.53547 34846 ft 476 kts 56°
2026-05-04 14:25 44.65033 54.61164 34833 ft 476 kts 54°
2026-05-04 14:25 44.69575 54.67920 34826 ft 477 kts 42°
2026-05-04 14:25 44.72034 54.71051 34817 ft 477 kts 42°
2026-05-04 14:26 44.76958 54.77328 34820 ft 478 kts 42°
2026-05-04 14:26 44.81872 54.83632 34821 ft 478 kts 42°
2026-05-04 14:27 44.86775 54.89952 34830 ft 478 kts 42°
2026-05-04 14:27 44.91685 54.96284 34826 ft 478 kts 42°
2026-05-04 14:28 44.96590 55.02623 34826 ft 478 kts 42°
2026-05-04 14:28 45.01494 55.08968 34838 ft 478 kts 41°
2026-05-04 14:29 45.09916 55.23314 34832 ft 478 kts 66°
2026-05-04 14:30 45.12363 55.32071 34832 ft 478 kts 68°
2026-05-04 14:31 45.16002 55.45261 34826 ft 480 kts 69°
2026-05-04 14:32 45.20405 55.61445 34833 ft 481 kts 69°
2026-05-04 14:32 45.22810 55.70299 34822 ft 481 kts 68°
2026-05-04 14:33 45.25224 55.79173 34837 ft 482 kts 68°
2026-05-04 14:33 45.27614 55.88070 34841 ft 483 kts 69°
2026-05-04 14:34 45.29993 55.96993 34837 ft 483 kts 69°
2026-05-04 14:34 45.32380 56.05924 34833 ft 484 kts 68°
2026-05-04 14:35 45.34770 56.14873 34852 ft 485 kts 68°
2026-05-04 14:35 45.37151 56.23846 34859 ft 485 kts 68°
2026-05-04 14:36 45.39525 56.32832 34860 ft 485 kts 68°
2026-05-04 14:36 45.41903 56.41833 34871 ft 486 kts 68°
2026-05-04 14:37 45.44270 56.50849 34869 ft 487 kts 69°
2026-05-04 14:37 45.46626 56.59890 34878 ft 487 kts 69°
2026-05-04 14:38 45.48980 56.68938 34883 ft 487 kts 69°
2026-05-04 14:38 45.51325 56.77994 34887 ft 487 kts 69°
2026-05-04 14:39 45.53663 56.87063 34893 ft 487 kts 69°
2026-05-04 14:39 45.55998 56.96138 34895 ft 487 kts 69°
2026-05-04 14:40 45.59505 57.09763 34897 ft 487 kts 69°
2026-05-04 14:40 45.61835 57.18852 34902 ft 488 kts 69°
2026-05-04 14:41 45.64146 57.27959 34904 ft 488 kts 69°
2026-05-04 14:42 45.68737 57.46201 34917 ft 487 kts 70°
2026-05-04 14:42 45.71024 57.55330 34917 ft 487 kts 70°
2026-05-04 14:43 45.72986 57.64587 34913 ft 487 kts 81°
2026-05-04 14:43 45.73178 57.74226 34912 ft 485 kts 98°
2026-05-04 14:44 45.72329 57.83790 34917 ft 484 kts 98°
2026-05-04 14:44 45.71474 57.93346 34920 ft 484 kts 98°
2026-05-04 14:45 45.70610 58.02900 34910 ft 484 kts 98°
2026-05-04 14:45 45.69744 58.12394 34912 ft 485 kts 98°
2026-05-04 14:46 45.68860 58.21955 34916 ft 485 kts 98°
2026-05-04 14:46 45.67967 58.31508 34924 ft 485 kts 99°
2026-05-04 14:47 45.67063 58.41049 34943 ft 483 kts 99°
2026-05-04 14:47 45.66153 58.50562 34954 ft 483 kts 99°
2026-05-04 14:48 45.65240 58.60114 34943 ft 481 kts 99°
2026-05-04 14:48 45.64324 58.69584 34951 ft 481 kts 99°
2026-05-04 14:49 45.63405 58.79043 34944 ft 480 kts 99°
2026-05-04 14:49 45.62489 58.88415 34953 ft 479 kts 100°
2026-05-04 14:50 45.61552 58.97811 34958 ft 477 kts 100°
2026-05-04 14:50 45.60603 59.07176 34964 ft 476 kts 100°
2026-05-04 14:51 45.59659 59.16536 34955 ft 476 kts 100°
2026-05-04 14:51 45.58706 59.25890 34953 ft 476 kts 100°
2026-05-04 14:52 45.57749 59.35241 34962 ft 475 kts 100°
2026-05-04 14:52 45.56782 59.44566 34975 ft 475 kts 100°
2026-05-04 14:53 45.55809 59.53877 34974 ft 474 kts 100°
2026-05-04 14:53 45.54834 59.63161 34978 ft 473 kts 101°
2026-05-04 14:54 45.53849 59.72436 34962 ft 473 kts 101°
2026-05-04 14:54 45.52856 59.81705 34965 ft 473 kts 101°
2026-05-04 14:55 45.51857 59.90961 34980 ft 472 kts 101°
2026-05-04 14:55 45.50853 60.00199 34983 ft 471 kts 101°
2026-05-04 14:56 45.49844 60.09410 34978 ft 470 kts 101°
2026-05-04 14:56 45.48830 60.18607 34975 ft 469 kts 101°
2026-05-04 14:57 45.47811 60.27791 34971 ft 469 kts 101°
2026-05-04 14:57 45.46778 60.36975 34965 ft 469 kts 101°
2026-05-04 14:58 45.45735 60.46156 34968 ft 470 kts 101°
2026-05-04 14:58 45.44692 60.55332 34970 ft 470 kts 101°
2026-05-04 14:59 45.43644 60.64516 34972 ft 470 kts 101°
2026-05-04 15:00 45.42051 60.78283 34976 ft 470 kts 101°
2026-05-04 15:00 45.40918 60.87442 34977 ft 470 kts 102°
2026-05-04 15:01 45.39132 61.01156 34973 ft 470 kts 102°
2026-05-04 15:01 45.37953 61.10311 34977 ft 471 kts 102°
2026-05-04 15:02 45.36778 61.19468 34980 ft 471 kts 102°
2026-05-04 15:02 45.35591 61.28616 34980 ft 470 kts 102°
2026-05-04 15:03 45.34396 61.37761 34971 ft 470 kts 102°
2026-05-04 15:03 45.33198 61.46829 34973 ft 470 kts 102°
2026-05-04 15:04 45.31982 61.55958 34978 ft 470 kts 102°
2026-05-04 15:04 45.30771 61.65097 34982 ft 471 kts 102°
2026-05-04 15:05 45.29550 61.74235 34983 ft 471 kts 102°
2026-05-04 15:05 45.28304 61.83422 34985 ft 471 kts 102°
2026-05-04 15:06 45.27059 61.92547 34974 ft 471 kts 102°
2026-05-04 15:07 45.25187 62.06183 34980 ft 471 kts 102°
2026-05-04 15:07 45.23920 62.15307 34980 ft 471 kts 103°
2026-05-04 15:08 45.22643 62.24430 34976 ft 471 kts 103°
2026-05-04 15:08 45.21364 62.33549 34982 ft 471 kts 103°
2026-05-04 15:09 45.20078 62.42668 34971 ft 471 kts 103°
2026-05-04 15:09 45.18786 62.51780 34970 ft 471 kts 103°
2026-05-04 15:10 45.16832 62.65439 34986 ft 471 kts 103°
2026-05-04 15:11 45.14862 62.79081 34987 ft 471 kts 103°
2026-05-04 15:11 45.13554 62.88176 34983 ft 471 kts 103°
2026-05-04 15:12 45.12236 62.97264 34980 ft 471 kts 103°
2026-05-04 15:12 45.10898 63.06345 34981 ft 471 kts 103°
2026-05-04 15:13 45.09551 63.15424 34984 ft 471 kts 103°
2026-05-04 15:13 45.08208 63.24489 34982 ft 471 kts 103°
2026-05-04 15:14 45.06859 63.33565 34984 ft 471 kts 104°
2026-05-04 15:14 45.05489 63.42634 34976 ft 471 kts 103°
2026-05-04 15:15 45.04114 63.51698 34977 ft 472 kts 103°
2026-05-04 15:15 45.02742 63.60761 34977 ft 472 kts 103°
2026-05-04 15:16 45.00896 63.72825 34974 ft 472 kts 104°
2026-05-04 15:17 44.98778 63.86414 34979 ft 472 kts 104°
2026-05-04 15:17 44.96649 63.99998 34979 ft 472 kts 103°
2026-05-04 15:18 44.95243 64.09052 34982 ft 472 kts 103°
2026-05-04 15:19 44.93111 64.22599 34982 ft 471 kts 104°
2026-05-04 15:19 44.90951 64.36127 34982 ft 471 kts 104°
2026-05-04 15:20 44.89505 64.45135 34980 ft 471 kts 103°
2026-05-04 15:20 44.88050 64.54144 34977 ft 471 kts 104°
2026-05-04 15:21 44.86589 64.63150 34981 ft 471 kts 104°
2026-05-04 15:22 44.84281 64.76614 34984 ft 471 kts 104°
2026-05-04 15:22 44.81910 64.90047 34986 ft 471 kts 105°
2026-05-04 15:23 44.80299 64.98986 34993 ft 471 kts 105°
2026-05-04 15:23 44.78641 65.07909 34992 ft 471 kts 105°
2026-05-04 15:24 44.75323 65.25730 34992 ft 470 kts 105°
2026-05-04 15:25 44.73670 65.34631 34991 ft 470 kts 105°
2026-05-04 15:26 44.71169 65.47964 34984 ft 470 kts 105°
2026-05-04 15:26 44.69212 65.61434 34979 ft 469 kts 95°
2026-05-04 15:27 44.68175 65.75119 34986 ft 470 kts 96°
2026-05-04 15:28 44.67112 65.88812 34994 ft 470 kts 95°
2026-05-04 15:29 44.66037 66.02509 34991 ft 471 kts 95°
2026-05-04 15:30 44.63482 66.34476 35001 ft 471 kts 95°
2026-05-04 15:31 44.62359 66.48105 35004 ft 471 kts 96°
2026-05-04 15:32 44.60371 66.70893 35003 ft 471 kts 97°
2026-05-04 15:34 44.58098 66.93629 35008 ft 471 kts 96°
2026-05-04 15:34 44.56760 67.07264 35020 ft 470 kts 96°
2026-05-04 15:35 44.55395 67.20884 35031 ft 470 kts 97°
2026-05-04 15:36 44.54010 67.34493 35040 ft 470 kts 97°
2026-05-04 15:36 44.53081 67.43548 35044 ft 469 kts 97°
2026-05-04 15:37 44.52159 67.52596 35046 ft 469 kts 97°
2026-05-04 15:37 44.51243 67.61646 35042 ft 469 kts 96°
2026-05-04 15:38 44.50347 67.70687 35056 ft 468 kts 96°
2026-05-04 15:38 44.49425 67.79705 35057 ft 467 kts 97°
2026-05-04 15:39 44.48486 67.88705 35056 ft 467 kts 97°
2026-05-04 15:40 44.47088 68.02186 35055 ft 466 kts 97°
2026-05-04 15:40 44.46149 68.11162 35057 ft 466 kts 96°
2026-05-04 15:41 44.45207 68.20128 35067 ft 465 kts 96°
2026-05-04 15:41 44.44232 68.29078 35067 ft 465 kts 97°
2026-05-04 15:42 44.43214 68.37999 35062 ft 464 kts 97°
2026-05-04 15:42 44.42197 68.46912 35059 ft 464 kts 97°
2026-05-04 15:43 44.41179 68.55814 35063 ft 463 kts 97°
2026-05-04 15:43 44.40153 68.64707 35061 ft 463 kts 97°
2026-05-04 15:44 44.39126 68.73581 35058 ft 462 kts 97°
2026-05-04 15:44 44.38095 68.82450 35056 ft 462 kts 97°
2026-05-04 15:45 44.37051 68.91305 35056 ft 462 kts 97°
2026-05-04 15:45 44.36001 69.00155 35063 ft 461 kts 97°
2026-05-04 15:46 44.34950 69.08992 35061 ft 461 kts 97°
2026-05-04 15:46 44.33894 69.17816 35058 ft 460 kts 97°
2026-05-04 15:47 44.32835 69.26635 35056 ft 460 kts 97°
2026-05-04 15:47 44.31760 69.35445 35054 ft 460 kts 97°
2026-05-04 15:48 44.30685 69.44252 35063 ft 460 kts 97°
2026-05-04 15:48 44.29063 69.57449 35063 ft 459 kts 97°
2026-05-04 15:49 44.27971 69.66230 35049 ft 459 kts 97°
2026-05-04 15:49 44.26862 69.74992 35056 ft 458 kts 97°
2026-05-04 15:50 44.25756 69.83754 35060 ft 458 kts 97°
2026-05-04 15:50 44.24653 69.92443 35061 ft 458 kts 98°
2026-05-04 15:51 44.23556 70.01188 35063 ft 458 kts 97°
2026-05-04 15:51 44.22447 70.09928 35068 ft 458 kts 98°
2026-05-04 15:52 44.21319 70.18661 35074 ft 458 kts 98°
2026-05-04 15:52 44.20181 70.27386 35072 ft 458 kts 98°
2026-05-04 15:53 44.19042 70.36114 35072 ft 458 kts 98°
2026-05-04 15:53 44.17893 70.44845 35072 ft 458 kts 98°
2026-05-04 15:54 44.16741 70.53582 35074 ft 459 kts 98°
2026-05-04 15:54 44.15585 70.62318 35070 ft 459 kts 99°
2026-05-04 15:55 44.14427 70.71057 35086 ft 459 kts 98°
2026-05-04 15:55 44.13244 70.79793 35090 ft 459 kts 98°
2026-05-04 15:56 44.12044 70.88527 35090 ft 460 kts 99°
2026-05-04 15:56 44.10845 70.97274 35085 ft 460 kts 99°
2026-05-04 15:57 44.09657 71.06028 35092 ft 461 kts 98°
2026-05-04 15:57 44.08470 71.14781 35087 ft 461 kts 99°
2026-05-04 15:58 44.07268 71.23542 35088 ft 462 kts 99°
2026-05-04 15:58 44.06054 71.32319 35088 ft 462 kts 99°
2026-05-04 15:59 44.04828 71.41106 35042 ft 463 kts 102°
2026-05-04 15:59 44.03799 71.48401 35039 ft 462 kts 102°
2026-05-04 16:00 44.02564 71.57149 35043 ft 461 kts 102°
2026-05-04 16:00 44.01329 71.65887 35043 ft 460 kts 103°
2026-05-04 16:01 44.00085 71.74602 35056 ft 460 kts 103°
2026-05-04 16:01 43.98833 71.83315 35064 ft 460 kts 103°
2026-05-04 16:02 43.97573 71.92035 35075 ft 461 kts 103°
2026-05-04 16:03 43.95675 72.05116 35092 ft 461 kts 103°
2026-05-04 16:03 43.94410 72.13836 35094 ft 461 kts 103°
2026-05-04 16:04 43.93134 72.22544 35102 ft 460 kts 103°
2026-05-04 16:04 43.91202 72.35593 35101 ft 460 kts 103°
2026-05-04 16:05 43.89905 72.44282 35103 ft 460 kts 103°
2026-05-04 16:06 43.87977 72.57323 35105 ft 461 kts 104°
2026-05-04 16:07 43.85353 72.74642 35104 ft 461 kts 104°
2026-05-04 16:08 43.82698 72.92008 35103 ft 461 kts 104°
2026-05-04 16:09 43.79324 73.13661 35103 ft 460 kts 105°
2026-05-04 16:10 43.76607 73.30951 35092 ft 459 kts 105°
2026-05-04 16:11 43.73892 73.48127 35108 ft 455 kts 105°
2026-05-04 16:12 43.69790 73.73679 35090 ft 454 kts 105°
2026-05-04 16:13 43.66926 73.90663 35085 ft 454 kts 106°
2026-05-04 16:14 43.63980 74.07625 35075 ft 456 kts 106°
2026-05-04 16:16 43.60229 74.28893 35072 ft 456 kts 106°
2026-05-04 16:16 43.58018 74.41529 33663 ft 446 kts 106°
2026-05-04 16:17 43.56565 74.49784 32604 ft 439 kts 106°
2026-05-04 16:18 43.54414 74.61855 31292 ft 426 kts 106°
2026-05-04 16:18 43.53709 74.65810 30847 ft 422 kts 106°
2026-05-04 16:19 43.51623 74.77468 29894 ft 416 kts 106°
2026-05-04 16:19 43.50234 74.85185 29336 ft 413 kts 106°
2026-05-04 16:20 43.48153 74.96634 28523 ft 408 kts 106°
2026-05-04 16:20 43.46773 75.04189 27992 ft 405 kts 105°
2026-05-04 16:21 43.44726 75.15360 27219 ft 400 kts 105°
2026-05-04 16:22 43.43364 75.22754 26711 ft 397 kts 105°
2026-05-04 16:22 43.41345 75.33678 25695 ft 390 kts 105°
2026-05-04 16:23 43.39343 75.44432 24458 ft 384 kts 105°
2026-05-04 16:24 43.38794 75.58769 22680 ft 383 kts 71°
2026-05-04 16:25 43.40770 75.65563 21760 ft 381 kts 69°
2026-05-04 16:26 43.44702 75.79105 19850 ft 373 kts 69°
2026-05-04 16:26 43.47468 75.88687 18506 ft 355 kts 68°
2026-05-04 16:27 43.49271 75.94984 17538 ft 351 kts 68°
2026-05-04 16:28 43.51919 76.04250 16207 ft 343 kts 68°
2026-05-04 16:28 43.54497 76.13257 14894 ft 328 kts 68°
2026-05-04 16:29 43.57789 76.24832 13163 ft 311 kts 69°
2026-05-04 16:30 43.59610 76.33005 12008 ft 295 kts 87°
2026-05-04 16:31 43.59072 76.38705 11350 ft 306 kts 101°
2026-05-04 16:31 43.57770 76.47291 10542 ft 304 kts 101°
2026-05-04 16:32 43.56496 76.55727 9957 ft 289 kts 100°
2026-05-04 16:33 43.55679 76.61090 9514 ft 284 kts 99°
2026-05-04 16:33 43.54865 76.66429 9059 ft 285 kts 101°
2026-05-04 16:34 43.54043 76.71782 8608 ft 285 kts 101°
2026-05-04 16:34 43.53630 76.74457 8379 ft 285 kts 100°
2026-05-04 16:35 43.52396 76.82485 7710 ft 286 kts 101°
2026-05-04 16:35 43.51147 76.90566 7049 ft 292 kts 98°
2026-05-04 16:36 43.51074 76.93342 6832 ft 289 kts 82°
2026-05-04 16:36 43.51600 76.98825 6436 ft 290 kts 81°
2026-05-04 16:37 43.52113 77.04366 6026 ft 292 kts 82°
2026-05-04 16:37 43.52367 77.07139 5826 ft 293 kts 82°
2026-05-04 16:37 43.52867 77.12566 5405 ft 274 kts 82°
2026-05-04 16:38 43.52761 77.17467 5144 ft 246 kts 106°
2026-05-04 16:39 43.50844 77.23802 5138 ft 230 kts 115°
2026-05-04 16:39 43.49091 77.27092 5133 ft 210 kts 161°
2026-05-04 16:40 43.46462 77.26576 5129 ft 196 kts 225°
2026-05-04 16:40 43.44897 77.23600 4804 ft 189 kts 239°
2026-05-04 16:41 43.43525 77.20798 4505 ft 161 kts 239°
2026-05-04 16:41 43.41834 77.17362 4160 ft 138 kts 239°
2026-05-04 16:42 43.40227 77.14098 3593 ft 136 kts 238°
2026-05-04 16:43 43.39168 77.11944 3294 ft 136 kts 237°
2026-05-04 16:43 43.38284 77.10160 3002 ft 136 kts 238°
2026-05-04 16:43 43.37756 77.09083 2770 ft 135 kts 236°
2026-05-04 16:44 43.35718 77.04959 2224 ft 95 kts 236°
2026-05-04 16:45 43.35253 77.04026 2227 ft 45 kts 235°
2026-05-04 16:46 43.34833 77.03160 2227 ft 20 kts 245°
2026-05-04 16:46 43.34783 77.02866 2226 ft 13 kts 268°
2026-05-04 16:47 43.34772 77.02567 2225 ft 17 kts 265°
2026-05-04 16:47 43.34785 77.02245 2228 ft 17 kts 274°
2026-05-04 16:48 43.34810 77.01700 2229 ft 16 kts 274°
2026-05-04 16:48 43.34819 77.01550 2227 ft 13 kts 275°
2026-05-04 16:49 43.34742 77.01399 2226 ft 12 kts 153°
2026-05-04 16:49 43.34647 77.01429 2227 ft 8 kts 215°
2026-05-04 16:50 43.34637 77.01331 2229 ft 2 kts 277°
2026-05-04 16:50 43.34638 77.01328 2229 ft 0 kts 277°